Time,TemperatureF,DewpointF,PressureIn,WindDirection,WindDirectionDegrees,WindSpeedMPH,WindSpeedGustMPH,Humidity,HourlyPrecipIn,Conditions,Clouds,dailyrainin,SoftwareType,DateUTC
2013-06-26 00:22:00,83.0,78.0,30.02,ESE,119,10.0,21.0,86,0.00,,,0.03,,2013-06-26 04:22:00,
2013-06-26 00:33:00,83.0,78.0,30.02,ESE,119,10.0,21.0,86,0.00,,,0.03,,2013-06-26 04:33:00,
2013-06-26 00:43:00,83.0,77.0,30.02,SE,126,8.0,18.0,83,0.00,,,0.03,,2013-06-26 04:43:00,
2013-06-26 00:53:00,83.0,77.0,30.01,SE,137,10.0,21.0,83,0.00,,,0.03,,2013-06-26 04:53:00,
2013-06-26 01:02:00,83.0,77.0,30.01,East,97,10.0,18.0,82,0.00,,,0.03,,2013-06-26 05:02:00,
2013-06-26 01:22:00,84.0,79.0,30.00,ESE,123,6.0,16.0,84,0.00,,,0.03,,2013-06-26 05:22:00,
2013-06-26 01:34:00,83.0,78.0,30.00,ESE,121,11.0,18.0,84,0.00,,,0.03,,2013-06-26 05:34:00,
2013-06-26 01:43:00,83.0,78.0,30.00,ESE,121,11.0,19.0,84,0.00,,,0.03,,2013-06-26 05:43:00,
2013-06-26 01:52:00,83.0,77.0,29.99,SE,136,12.0,20.0,83,0.00,,,0.03,,2013-06-26 05:52:00,
2013-06-26 02:02:00,83.0,77.0,29.98,ESE,117,10.0,18.0,83,0.00,,,0.03,,2013-06-26 06:02:00,
2013-06-26 02:11:00,83.0,77.0,29.98,SE,134,9.0,17.0,83,0.00,,,0.03,,2013-06-26 06:11:00,
2013-06-26 02:22:00,83.0,78.0,29.98,ESE,121,5.0,20.0,85,0.00,,,0.03,,2013-06-26 06:22:00,
2013-06-26 02:34:00,82.0,78.0,29.98,SE,128,7.0,18.0,87,0.00,,,0.03,,2013-06-26 06:34:00,
2013-06-26 02:43:00,82.0,77.0,29.98,SE,138,10.0,17.0,86,0.00,,,0.03,,2013-06-26 06:43:00,
2013-06-26 02:53:00,83.0,78.0,29.98,ESE,103,10.0,19.0,84,0.00,,,0.03,,2013-06-26 06:53:00,
2013-06-26 03:01:00,83.0,78.0,29.98,SSE,160,8.0,15.0,84,0.00,,,0.03,,2013-06-26 07:01:00,
2013-06-26 03:11:00,82.0,76.0,29.97,East,94,19.0,29.0,82,0.00,,,0.03,,2013-06-26 07:11:00,
2013-06-26 03:22:00,81.0,76.0,29.98,ESE,119,8.0,22.0,85,0.01,,,0.04,,2013-06-26 07:22:00,
2013-06-26 03:43:00,81.0,77.0,29.96,SSE,155,9.0,16.0,87,0.01,,,0.04,,2013-06-26 07:43:00,
2013-06-26 03:53:00,82.0,77.0,29.96,SE,143,7.0,15.0,86,0.01,,,0.04,,2013-06-26 07:53:00,
2013-06-26 04:01:00,82.0,77.0,29.97,SSE,166,8.0,17.0,85,0.01,,,0.04,,2013-06-26 08:01:00,
2013-06-26 04:11:00,83.0,78.0,29.97,SE,130,8.0,19.0,84,0.01,,,0.04,,2013-06-26 08:11:00,
2013-06-26 04:22:00,83.0,78.0,29.97,ESE,119,7.0,18.0,84,0.00,,,0.04,,2013-06-26 08:22:00,
2013-06-26 04:33:00,83.0,78.0,29.96,SE,139,7.0,14.0,84,0.00,,,0.04,,2013-06-26 08:33:00,
2013-06-26 04:42:00,83.0,77.0,29.96,SE,139,6.0,13.0,83,0.00,,,0.04,,2013-06-26 08:42:00,
2013-06-26 05:01:00,83.0,77.0,29.96,ESE,121,9.0,19.0,83,0.00,,,0.04,,2013-06-26 09:01:00,
2013-06-26 05:11:00,83.0,77.0,29.96,SSE,158,8.0,15.0,83,0.00,,,0.04,,2013-06-26 09:11:00,
2013-06-26 05:43:00,83.0,77.0,29.96,ESE,110,8.0,17.0,83,0.00,,,0.04,,2013-06-26 09:43:00,
2013-06-26 05:53:00,83.0,77.0,29.96,ESE,116,7.0,18.0,83,0.00,,,0.04,,2013-06-26 09:53:00,
2013-06-26 06:01:00,83.0,78.0,29.96,SE,124,5.0,18.0,84,0.00,,,0.04,,2013-06-26 10:01:00,
2013-06-26 06:53:00,83.0,77.0,29.97,ESE,110,0.0,14.0,82,0.00,,,0.04,,2013-06-26 10:53:00,
2013-06-26 07:02:00,83.0,77.0,29.97,East,95,3.0,15.0,82,0.00,,,0.04,,2013-06-26 11:02:00,
2013-06-26 07:44:00,83.0,77.0,29.98,SE,137,7.0,16.0,81,0.00,,,0.04,,2013-06-26 11:44:00,
2013-06-26 07:52:00,83.0,77.0,29.98,SSE,153,2.0,13.0,82,0.00,,,0.04,,2013-06-26 11:52:00,
2013-06-26 08:42:00,81.0,76.0,29.99,ESE,110,5.0,18.0,86,0.06,,,0.10,,2013-06-26 12:42:00,
2013-06-26 08:52:00,82.0,77.0,29.99,ESE,104,12.0,21.0,84,0.06,,,0.10,,2013-06-26 12:52:00,
2013-06-26 09:22:00,83.0,77.0,30.01,SE,140,11.0,19.0,82,0.06,,,0.10,,2013-06-26 13:22:00,
2013-06-26 09:34:00,83.0,77.0,30.01,ESE,103,9.0,20.0,82,0.00,,,0.10,,2013-06-26 13:34:00,
2013-06-26 09:53:00,84.0,78.0,30.01,East,96,9.0,18.0,81,0.00,,,0.10,,2013-06-26 13:53:00,
2013-06-26 10:02:00,84.0,78.0,30.01,ESE,107,9.0,16.0,81,0.00,,,0.10,,2013-06-26 14:02:00,
2013-06-26 10:12:00,84.0,77.0,30.01,SE,126,11.0,16.0,80,0.00,,,0.10,,2013-06-26 14:12:00,
2013-06-26 10:24:00,84.0,78.0,30.01,East,96,7.0,19.0,81,0.00,,,0.10,,2013-06-26 14:24:00,
2013-06-26 10:34:00,84.0,77.0,30.00,ESE,116,12.0,19.0,80,0.00,,,0.10,,2013-06-26 14:34:00,
2013-06-26 10:42:00,84.0,77.0,30.00,SSE,155,9.0,18.0,80,0.00,,,0.10,,2013-06-26 14:42:00,
2013-06-26 10:53:00,84.0,77.0,30.01,SE,145,12.0,19.0,79,0.00,,,0.10,,2013-06-26 14:53:00,
2013-06-26 11:02:00,84.0,76.0,30.00,ESE,109,11.0,15.0,78,0.00,,,0.10,,2013-06-26 15:02:00,
2013-06-26 11:11:00,84.0,77.0,30.01,ESE,111,11.0,19.0,79,0.00,,,0.10,,2013-06-26 15:11:00,
2013-06-26 11:22:00,85.0,78.0,30.01,SE,143,7.0,18.0,79,0.00,,,0.10,,2013-06-26 15:22:00,
2013-06-26 11:34:00,85.0,77.0,30.01,ESE,109,6.0,16.0,78,0.00,,,0.10,,2013-06-26 15:34:00,
2013-06-26 11:44:00,85.0,77.0,30.01,ESE,105,6.0,13.0,78,0.00,,,0.10,,2013-06-26 15:44:00,
2013-06-26 11:53:00,85.0,77.0,30.01,ESE,115,7.0,13.0,78,0.00,,,0.10,,2013-06-26 15:53:00,
2013-06-26 12:11:00,85.0,77.0,30.02,East,95,5.0,12.0,78,0.00,,,0.10,,2013-06-26 16:11:00,
2013-06-26 12:22:00,85.0,77.0,30.01,East,101,7.0,13.0,77,0.00,,,0.10,,2013-06-26 16:22:00,
2013-06-26 12:34:00,85.0,77.0,30.01,East,93,6.0,13.0,76,0.00,,,0.10,,2013-06-26 16:34:00,
2013-06-26 12:43:00,85.0,77.0,30.01,ESE,109,9.0,15.0,78,0.00,,,0.10,,2013-06-26 16:43:00,
2013-06-26 12:52:00,85.0,77.0,30.02,ESE,107,4.0,15.0,78,0.00,,,0.07,,2013-06-26 16:52:00,
2013-06-26 13:43:00,85.0,77.0,30.03,ESE,107,6.0,11.0,78,0.00,,,0.07,,2013-06-26 17:43:00,
2013-06-26 13:52:00,85.0,77.0,30.03,ESE,119,3.0,13.0,78,0.00,,,0.07,,2013-06-26 17:52:00,
2013-06-26 14:12:00,85.0,77.0,30.03,ESE,103,7.0,13.0,78,0.00,,,0.07,,2013-06-26 18:12:00,
2013-06-26 14:22:00,85.0,77.0,30.03,ESE,110,8.0,14.0,78,0.00,,,0.07,,2013-06-26 18:22:00,
2013-06-26 14:34:00,85.0,77.0,30.02,ESE,108,11.0,18.0,78,0.00,,,0.07,,2013-06-26 18:34:00,
2013-06-26 14:43:00,85.0,77.0,30.02,ESE,103,10.0,15.0,78,0.00,,,0.07,,2013-06-26 18:43:00,
2013-06-26 14:52:00,85.0,77.0,30.02,ESE,118,10.0,15.0,78,0.00,,,0.07,,2013-06-26 18:52:00,
2013-06-26 15:11:00,85.0,77.0,30.02,SE,128,9.0,15.0,77,0.00,,,0.07,,2013-06-26 19:11:00,
2013-06-26 15:22:00,85.0,77.0,30.01,ESE,119,9.0,16.0,77,0.00,,,0.07,,2013-06-26 19:22:00,
2013-06-26 15:33:00,85.0,77.0,30.01,SE,143,4.0,15.0,77,0.00,,,0.07,,2013-06-26 19:33:00,
2013-06-26 15:42:00,85.0,77.0,30.00,ESE,115,10.0,16.0,77,0.00,,,0.07,,2013-06-26 19:42:00,
2013-06-26 15:52:00,85.0,77.0,30.00,ESE,113,4.0,14.0,78,0.00,,,0.07,,2013-06-26 19:52:00,
2013-06-26 16:01:00,85.0,77.0,29.99,ESE,120,11.0,16.0,77,0.00,,,0.07,,2013-06-26 20:01:00,
2013-06-26 16:12:00,85.0,77.0,29.99,ESE,117,6.0,13.0,78,0.00,,,0.07,,2013-06-26 20:12:00,
2013-06-26 16:22:00,84.0,77.0,29.99,ESE,112,10.0,15.0,79,0.00,,,0.07,,2013-06-26 20:22:00,
2013-06-26 16:33:00,85.0,77.0,29.98,ESE,123,6.0,15.0,78,0.00,,,0.07,,2013-06-26 20:33:00,
2013-06-26 16:43:00,85.0,77.0,29.98,ESE,122,6.0,15.0,78,0.00,,,0.07,,2013-06-26 20:43:00,
2013-06-26 16:52:00,85.0,77.0,29.97,ESE,102,11.0,15.0,78,0.00,,,0.07,,2013-06-26 20:52:00,
2013-06-26 17:12:00,84.0,77.0,29.97,ESE,123,4.0,14.0,79,0.00,,,0.07,,2013-06-26 21:12:00,
2013-06-26 17:23:00,84.0,76.0,29.97,ESE,117,6.0,16.0,78,0.00,,,0.07,,2013-06-26 21:23:00,
2013-06-26 17:33:00,84.0,76.0,29.97,ESE,114,7.0,16.0,78,0.00,,,0.07,,2013-06-26 21:33:00,
2013-06-26 17:43:00,84.0,76.0,29.98,ESE,120,4.0,16.0,78,0.00,,,0.07,,2013-06-26 21:43:00,
2013-06-26 17:52:00,84.0,76.0,29.98,ESE,103,7.0,16.0,78,0.00,,,0.07,,2013-06-26 21:52:00,
2013-06-26 18:43:00,85.0,77.0,29.97,East,82,4.0,15.0,76,0.00,,,0.07,,2013-06-26 22:43:00,
2013-06-26 18:52:00,85.0,77.0,29.97,ESE,103,9.0,15.0,77,0.00,,,0.07,,2013-06-26 22:52:00,
2013-06-26 19:02:00,85.0,77.0,29.96,East,98,7.0,16.0,78,0.00,,,0.07,,2013-06-26 23:02:00,
2013-06-26 19:11:00,85.0,77.0,29.97,East,80,2.0,16.0,77,0.00,,,0.07,,2013-06-26 23:11:00,
2013-06-26 19:22:00,84.0,75.0,29.97,ESE,113,2.0,13.0,75,0.00,,,0.07,,2013-06-26 23:22:00,
2013-06-26 19:34:00,84.0,76.0,29.98,East,87,0.0,11.0,77,0.00,,,0.07,,2013-06-26 23:34:00,
2013-06-26 19:43:00,84.0,76.0,29.98,East,99,5.0,11.0,77,0.00,,,0.07,,2013-06-26 23:43:00,
2013-06-26 19:52:00,84.0,76.0,29.99,East,90,4.0,11.0,78,0.00,,,0.07,,2013-06-26 23:52:00,
2013-06-26 20:01:00,84.0,76.0,29.99,East,100,7.0,14.0,78,0.00,,,0.07,,2013-06-27 00:01:00,
2013-06-26 20:12:00,84.0,76.0,29.99,ENE,77,1.0,12.0,78,0.00,,,0.07,,2013-06-27 00:12:00,
2013-06-26 20:22:00,84.0,76.0,30.00,ENE,76,5.0,11.0,78,0.00,,,0.07,,2013-06-27 00:22:00,
2013-06-26 20:33:00,83.0,75.0,29.99,ENE,76,4.0,14.0,78,0.00,,,0.07,,2013-06-27 00:33:00,
2013-06-26 20:42:00,83.0,75.0,30.00,ENE,74,5.0,12.0,78,0.00,,,0.07,,2013-06-27 00:42:00,
2013-06-26 20:53:00,83.0,75.0,30.00,East,79,0.0,13.0,76,0.00,,,0.07,,2013-06-27 00:53:00,
2013-06-26 21:01:00,83.0,75.0,30.00,East,79,0.0,13.0,76,0.00,,,0.07,,2013-06-27 01:01:00,
2013-06-26 21:11:00,83.0,75.0,30.00,East,79,0.0,13.0,76,0.00,,,0.07,,2013-06-27 01:11:00,
2013-06-26 21:21:00,83.0,75.0,30.00,East,85,0.0,12.0,77,0.00,,,0.07,,2013-06-27 01:21:00,
2013-06-26 21:32:00,83.0,75.0,30.00,ESE,104,6.0,12.0,76,0.00,,,0.07,,2013-06-27 01:32:00,
2013-06-26 21:43:00,83.0,75.0,30.00,ESE,121,1.0,12.0,76,0.00,,,0.07,,2013-06-27 01:43:00,
2013-06-26 21:53:00,83.0,75.0,30.00,ESE,121,1.0,12.0,76,0.00,,,0.07,,2013-06-27 01:53:00,
2013-06-26 22:01:00,83.0,75.0,30.01,ESE,109,2.0,10.0,77,0.00,,,0.07,,2013-06-27 02:01:00,
2013-06-26 22:11:00,83.0,75.0,30.01,ESE,109,2.0,10.0,77,0.00,,,0.07,,2013-06-27 02:11:00,
2013-06-26 22:32:00,83.0,75.0,30.01,East,90,2.0,11.0,77,0.00,,,0.07,,2013-06-27 02:32:00,
2013-06-26 22:42:00,83.0,75.0,30.01,ENE,74,4.0,12.0,77,0.00,,,0.07,,2013-06-27 02:42:00,
2013-06-26 22:52:00,83.0,77.0,30.01,ESE,104,1.0,11.0,81,0.00,,,0.07,,2013-06-27 02:52:00,
2013-06-26 23:02:00,83.0,77.0,30.01,ESE,104,1.0,11.0,81,0.00,,,0.07,,2013-06-27 03:02:00,
2013-06-26 23:11:00,83.0,77.0,30.01,East,100,1.0,8.0,82,0.00,,,0.07,,2013-06-27 03:11:00,
2013-06-26 23:21:00,83.0,77.0,30.01,East,100,1.0,8.0,82,0.00,,,0.07,,2013-06-27 03:21:00,
2013-06-26 23:32:00,83.0,77.0,30.01,East,101,2.0,9.0,81,0.00,,,0.07,,2013-06-27 03:32:00,
2013-06-26 23:42:00,83.0,77.0,30.01,East,101,2.0,9.0,81,0.00,,,0.07,,2013-06-27 03:42:00,
2013-06-26 23:52:00,83.0,77.0,30.01,East,99,2.0,11.0,82,0.00,,,0.07,,2013-06-27 03:52:00,